Regional Weather Roundup
Issued by NWS Upton, NY

Current Version | Previous Version | Text Only | Print | Product List | Glossary On
Versions: 1 2 3 4 5 6 7 8 9 10 11 12 13 14 15 16 17 18 19 20 21 22 23 24 25 26 27
000
ASUS41 KOKX 250109
RWROKX

REGIONAL WEATHER ROUNDUP
NATIONAL WEATHER SERVICE NEW YORK NY
900 PM EDT WED MAY 24 2017

NOTE: "FAIR" INDICATES FEW OR NO CLOUDS BELOW 12,000 FEET WITH NO
SIGNIFICANT WEATHER AND/OR OBSTRUCTIONS TO VISIBILITY.

NYZ071-072-176-178-NJZ106-104-250200-
NEW YORK CITY METRO AREA

CITY           SKY/WX    TMP DP  RH WIND       PRES   REMARKS
Central Park   CLOUDY    61  50  67 SE6       29.84R
Wall St Helipt CLOUDY    61  52  72 E8        29.83R
Bronx Bot Gard   N/A     61  50  67 S2        29.84R
LaGuardia APRT CLOUDY    63  50  62 SE12      29.81R
Kennedy INTL   CLOUDY    59  52  77 E14       29.83R
Breezy Point     N/A     57 N/A N/A SE12G17     N/A
Newark/Liberty CLOUDY    60  51  72 SE10      29.81R
Teterboro      CLOUDY    62  52  69 S7        29.80R
$$

NYZ177-179-078>081-250200-
LONG ISLAND NEW YORK

CITY           SKY/WX    TMP DP  RH WIND       PRES   REMARKS
Jones Beach      N/A     57 N/A N/A E13G18      N/A
Matinecock PT  NOT AVBL
Farmingdale    MOCLDY    59  51  75 SE10      29.82R
MacArthur/ISP  CLOUDY    57  50  77 E10       29.83R
Shirley        MOCLDY    57  53  86 VRB5      29.83R
Mt Sinai Harb    N/A    N/A N/A N/A SE7         N/A
Westhampton    MOCLDY    56  48  74 E7        29.84R
East Hampton     N/A     56  49  78 E5        29.82S
Montauk          N/A     57  51  80 E6        29.84R
$$

NYZ052-065-067-250200-
HUDSON VALLEY

CITY           SKY/WX    TMP DP  RH WIND       PRES   REMARKS
White Plains   MOCLDY    60  48  64 E5        29.81R
Larchmont Harb   N/A     59 N/A N/A NE10        N/A
Croton O-T Hud   N/A     63 N/A N/A E2          N/A
Newburgh       CLEAR     63  52  67 SW6       29.81R
Montgomery     CLOUDY    62  50  64 CALM      29.79R
Poughkeepsie   CLOUDY    64  49  57 S3        29.79R
Albany         CLOUDY    69  47  45 SE5       29.77R
$$

NJZ001-105-106-008-010-013-015-019>022-104-250200-
NEW JERSEY

CITY           SKY/WX    TMP DP  RH WIND       PRES   REMARKS
Newark/Liberty CLOUDY    60  51  72 SE10      29.81R
Teterboro      CLOUDY    62  52  69 S7        29.80R
Caldwell       MOCLDY    63  50  62 S6        29.82R
Somerville     MOCLDY    60  50  69 CALM      29.78R
Linden           N/A     59  50  72 SE8       29.82R
Perth Amboy      N/A     59 N/A N/A E12         N/A
Sussex         CLOUDY    61  50  67 SE6       29.80R
Andover          N/A     59  50  72 CALM      29.79R
Trenton        CLOUDY    59  50  72 SE5       29.79R
Millville      CLOUDY    58  54  86 E12       29.77S
Atlantic City  CLOUDY    58  51  78 E10       29.79
Wrightstown    CLOUDY    57  51  80 E5        29.78R
Toms River     CLOUDY    58  51  78 E8        29.80F
Belmar         CLOUDY    57  51  80 E10       29.81S
$$

PAZ047>061-062-071-250200-
EASTERN PENNSYLVANIA

CITY           SKY/WX    TMP DP  RH WIND       PRES   REMARKS
Philadelphia   CLOUDY    62  49  62 E12       29.78S
Allentown      MOCLDY    65  48  54 SE10      29.77R
Scranton       CLOUDY    65  47  52 VRB6      29.75R
$$

CTZ002-004>006-009-010-012-RIZ004-006-007-MAZ004-011-015-250200-
SOUTHERN NEW ENGLAND
 IN CT

CITY           SKY/WX    TMP DP  RH WIND       PRES   REMARKS
Bradley INTL   CLOUDY    65  50  58 E6        29.81R
Hartford       CLOUDY    63  53  70 S7        29.81R
Danbury        CLOUDY    58  49  72 SE8       29.84R
Wtrbury/Oxford MOCLDY    57  46  67 S8        29.83R
Bridgeport     CLOUDY    60  52  74 E8        29.82R
Meriden        PTCLDY    59  52  77 CALM      29.82R
New Haven      CLOUDY    58  49  72 E8        29.83R
Chester          N/A     57  50  77 SE6       29.84R
Groton         CLOUDY    58  50  75 E10       29.83R
Wilimantic     CLOUDY    64  49  57 E3        29.83R

 IN RI

CITY           SKY/WX    TMP DP  RH WIND       PRES   REMARKS
Providence     CLOUDY    59  51  75 NE8       29.85R
Block Island   PTCLDY    56  51  84 E8        29.85R
Westerly       PTCLDY    59  51  75 E8        29.84R
 IN MA

CITY           SKY/WX    TMP DP  RH WIND       PRES   REMARKS
Boston         PTCLDY    55  51  86 E6        29.86R
Worcester      CLOUDY    58  46  64 E3        29.85R
Westfield      CLOUDY    66  50  56 E6        29.81R
Provincetown   PTCLDY    52  49  89 E3        29.86R
Nantucket      CLOUDY    52  48  86 NE12      29.83R
$$

ANZ330-335-338-340-345-350-353-355-250200-
COASTAL MARINE OBSERVATIONS


STATION/POSITION TIME  SKY/WX   TEMP    WIND        PRES    VSBY  WAVE
                                AIR SEA DIR/SP/G                  HT/PER
                 (UTC)          (F)     (DEG/KT/KT) (MB)    (MI)  (FT/S)
NY HARB ENTRANCE 2350            58 58  110/ 16/ 17 1009.0          5/ 8
20 S FIRE ISLAND 0050            56 55   70/ 12/ 14 1009.1          5/ 7
GREAT SOUTH BAY  0015            58 65  100/ 12/ 16   N/A
23 SSW MONTAUK P 2350            55 55              1009.3          6/ 7
15 E BARNEGAT LI 0030               57                N/A           5/ 7
HUDSON CANYON    2350            53 53   40/ 14/ 16 1008.1          7/ 7
KINGS POINT      0030            61 58  190/  7/  8 1009.0
EXECUTION ROCKS  0045            61                   N/A
CENTRAL LI SOUND NOT AVBL
EASTERN LI SOUND NOT AVBL
ROBBINS REEF     0030            60     130/ 14/ 19 1009.5
$$


>>>>>>>>>>>>>>>>>>>>>>>>>>>> KEY <<<<<<<<<<<<<<<<<<<<<<<<<<<
>                                                          <
>     SKY/WX - Sky Condition/Present Weather               <
>     TMP    - Temperature in Fahrenheit                   <
>     DP     - Dew Point in Fahrenheit                     <
>     RH     - Relative Humidity in Percent                <
>     WIND   - Direction (from) and Speed in MPH           <
>     PRES   - Mean Sea Level Pressure (inches of Hg)      <
>     WCI    - Wind Chill Index                            <
>     VSB    - VISIBILITY IN MILES                         <
>     HX     - HEAT INDEX                                  <
>     TC     - TEMPERATURE IN CELSIUS                      <
>     VRB    - VARIABLE WIND DIRECTION                     <
>                                                          <
>>>>>>>>>>>>>>>>>>>>>>>>>>>> KEY <<<<<<<<<<<<<<<<<<<<<<<<<<<




USA.gov is the U.S. government's official web portal to all federal, state and local government web resources and services.